Overview Statistics Trail Chart Weather Telemetry Raw packets
 

This is the latest recevied weather packets stored in our database for station/object DL5DI-H. If no packets are shown the sender has not sent any weather packets the latest 10 day(s).

<< 23 24 25 26 27 28 29 >>
Time Temp. Humidity Pressure Rain* Wind** Luminosity Snow
1788348601 22.22° C 50% 1021.6 hPa 0 mm - - -
1788348002 22.22° C 50% 1021.7 hPa 0 mm - - -
1788347401 22.22° C 50% 1021.7 hPa 0 mm - - -
1788346801 21.67° C 51% 1021.8 hPa 0 mm - - -
1788346200 21.67° C 53% 1021.9 hPa 0 mm - - -
1788345601 21.67° C 55% 1021.9 hPa 0 mm - - -
1788345002 21.11° C 57% 1022 hPa 0 mm - - -
1788344401 20.56° C 68% 1022.3 hPa 0 mm - - -
1788343802 20° C 70% 1022.3 hPa 0 mm - - -
1788343200 19.44° C 72% 1022.4 hPa 0 mm - - -
1788342600 19.44° C 73% 1022.3 hPa 0 mm - - -
1788342000 18.89° C 74% 1022.2 hPa 0 mm - - -
1788341402 18.89° C 75% 1022.2 hPa 0 mm - - -
1788340802 18.33° C 75% 1022.3 hPa 0 mm - - -
1788340202 18.33° C 77% 1022.4 hPa 0 mm - - -
1788339602 18.33° C 77% 1022.2 hPa 0 mm - - -
1788339001 17.78° C 78% 1022.3 hPa 0 mm - - -
1788338401 17.78° C 79% 1022.2 hPa 0 mm - - -
1788337800 17.22° C 80% 1022.2 hPa 0 mm - - -
1788337201 17.22° C 80% 1022.1 hPa 0 mm - - -
1788336602 16.67° C 81% 1022.2 hPa 0 mm - - -
1788336001 16.67° C 82% 1022.2 hPa 0 mm - - -
1788335401 16.11° C 83% 1022.2 hPa 0 mm - - -
1788334200 15° C 84% 1021.9 hPa 0 mm - - -
1788333602 14.44° C 85% 1022 hPa 0 mm - - -

* Rain latest hour (hover to see other rain measurements)
** Current wind speed in m/s (hover to see current wind gust speed)